AAL1275 KORD-KSAT

Flight info

Callsign AAL1275
Flight time N/A
Altitude 38000
Route ACITO ADELL ARLYN STL FSM WINDU QERVO3
Aircraft A20N/M-SDE2E3FGHIJ1RWXY/LB1

Departure

Time N/A
Airport Chicago O'Hare International Airport (KORD)

Arrival

Time 2026-05-07 13:35
Airport San Antonio International Airport (KSAT)
Time Latitude Longitude Altitude Speed Heading
2026-05-07 13:02 31.38837 -97.13805 38059 ft 383 kts 209°
2026-05-07 13:02 31.36297 -97.14806 38056 ft 384 kts 209°
2026-05-07 13:03 31.31214 -97.16807 38050 ft 385 kts 208°
2026-05-07 13:03 31.26142 -97.18793 38044 ft 384 kts 208°
2026-05-07 13:04 31.21074 -97.20773 38036 ft 385 kts 208°
2026-05-07 13:04 31.16006 -97.22751 38039 ft 386 kts 208°
2026-05-07 13:05 31.10918 -97.24732 38045 ft 385 kts 208°
2026-05-07 13:05 31.05806 -97.26720 38042 ft 386 kts 208°
2026-05-07 13:06 31.00735 -97.28693 38039 ft 387 kts 208°
2026-05-07 13:06 30.95617 -97.30682 38038 ft 386 kts 208°
2026-05-07 13:07 30.90514 -97.32661 38031 ft 386 kts 208°
2026-05-07 13:07 30.85445 -97.34629 38031 ft 387 kts 208°
2026-05-07 13:08 30.80315 -97.36613 38035 ft 387 kts 207°
2026-05-07 13:08 30.75202 -97.38595 38035 ft 387 kts 207°
2026-05-07 13:09 30.70105 -97.40559 37860 ft 382 kts 208°
2026-05-07 13:09 30.67609 -97.41522 37255 ft 381 kts 207°
2026-05-07 13:09 30.65073 -97.42502 36210 ft 386 kts 207°
2026-05-07 13:10 30.62513 -97.43497 35074 ft 393 kts 207°
2026-05-07 13:10 30.59923 -97.44501 33954 ft 399 kts 206°
2026-05-07 13:10 30.57274 -97.45525 32923 ft 403 kts 206°
2026-05-07 13:10 30.55506 -97.46205 32335 ft 405 kts 206°
2026-05-07 13:11 30.51941 -97.47572 31195 ft 408 kts 206°
2026-05-07 13:11 30.49248 -97.48606 30345 ft 410 kts 206°
2026-05-07 13:11 30.46559 -97.49638 29485 ft 413 kts 206°
2026-05-07 13:11 30.43828 -97.50688 28503 ft 417 kts 206°
2026-05-07 13:12 30.41070 -97.51795 27469 ft 420 kts 207°
2026-05-07 13:12 30.38386 -97.53078 26500 ft 420 kts 211°
2026-05-07 13:12 30.35787 -97.54537 25869 ft 412 kts 213°
2026-05-07 13:12 30.34134 -97.55580 25467 ft 407 kts 216°
2026-05-07 13:13 30.30910 -97.57785 24633 ft 401 kts 216°
2026-05-07 13:13 30.28531 -97.59424 24028 ft 398 kts 216°
2026-05-07 13:13 30.26135 -97.61077 23413 ft 395 kts 216°
2026-05-07 13:13 30.23795 -97.62691 22792 ft 393 kts 216°
2026-05-07 13:14 30.21469 -97.64298 22192 ft 391 kts 216°
2026-05-07 13:14 30.19142 -97.65906 21593 ft 389 kts 215°
2026-05-07 13:14 30.16813 -97.67512 20993 ft 387 kts 215°
2026-05-07 13:14 30.14529 -97.69089 20409 ft 384 kts 215°
2026-05-07 13:15 30.12246 -97.70664 19824 ft 381 kts 215°
2026-05-07 13:15 30.09994 -97.72216 19242 ft 378 kts 214°
2026-05-07 13:15 30.07727 -97.73778 18643 ft 375 kts 215°
2026-05-07 13:15 30.05522 -97.75297 18062 ft 372 kts 214°
2026-05-07 13:16 30.03296 -97.76833 17471 ft 368 kts 214°
2026-05-07 13:16 30.01137 -97.78320 16884 ft 365 kts 214°
2026-05-07 13:16 29.98960 -97.79818 16279 ft 363 kts 214°
2026-05-07 13:16 29.96782 -97.81315 15671 ft 361 kts 214°
2026-05-07 13:17 29.94654 -97.82779 15076 ft 359 kts 213°
2026-05-07 13:17 29.92515 -97.84251 14475 ft 357 kts 214°
2026-05-07 13:17 29.90599 -97.86008 13942 ft 350 kts 228°
2026-05-07 13:17 29.89196 -97.88235 13673 ft 344 kts 241°
2026-05-07 13:18 29.88248 -97.90756 13388 ft 338 kts 248°
2026-05-07 13:18 29.87435 -97.93227 13100 ft 328 kts 248°
2026-05-07 13:18 29.86642 -97.95661 12901 ft 315 kts 248°
2026-05-07 13:18 29.85876 -97.97973 12923 ft 312 kts 248°
2026-05-07 13:19 29.85093 -98.00318 12946 ft 313 kts 248°
2026-05-07 13:19 29.84144 -98.02555 12961 ft 311 kts 237°
2026-05-07 13:19 29.82810 -98.04517 12970 ft 312 kts 227°
2026-05-07 13:19 29.81210 -98.06223 12969 ft 312 kts 223°
2026-05-07 13:20 29.79575 -98.07870 12909 ft 312 kts 223°
2026-05-07 13:20 29.77938 -98.09510 12403 ft 314 kts 223°
2026-05-07 13:20 29.76306 -98.11144 11891 ft 314 kts 223°
2026-05-07 13:20 29.74665 -98.12792 11391 ft 313 kts 224°
2026-05-07 13:21 29.73025 -98.14442 10906 ft 312 kts 224°
2026-05-07 13:21 29.71391 -98.16086 10450 ft 310 kts 224°
2026-05-07 13:21 29.69807 -98.17681 10205 ft 300 kts 224°
2026-05-07 13:21 29.68263 -98.19232 10076 ft 288 kts 224°
2026-05-07 13:22 29.66779 -98.20723 9945 ft 275 kts 225°
2026-05-07 13:22 29.65356 -98.22154 9521 ft 277 kts 225°
2026-05-07 13:22 29.63903 -98.23624 8967 ft 281 kts 224°
2026-05-07 13:22 29.62457 -98.25076 8755 ft 273 kts 224°
2026-05-07 13:23 29.61027 -98.26510 8397 ft 271 kts 224°
2026-05-07 13:23 29.59610 -98.27933 8036 ft 269 kts 224°
2026-05-07 13:23 29.58213 -98.29333 7690 ft 266 kts 224°
2026-05-07 13:23 29.56822 -98.30726 7349 ft 263 kts 223°
2026-05-07 13:24 29.55442 -98.32110 7009 ft 261 kts 223°
2026-05-07 13:24 29.54093 -98.33462 6677 ft 259 kts 223°
2026-05-07 13:24 29.52743 -98.34814 6349 ft 257 kts 223°
2026-05-07 13:24 29.51418 -98.36139 6214 ft 246 kts 223°
2026-05-07 13:25 29.50152 -98.37402 6128 ft 234 kts 223°
2026-05-07 13:25 29.48950 -98.38605 6046 ft 226 kts 223°
2026-05-07 13:25 29.47761 -98.39795 5966 ft 227 kts 223°
2026-05-07 13:25 29.46548 -98.40991 5947 ft 228 kts 222°
2026-05-07 13:26 29.45337 -98.42162 5949 ft 228 kts 222°
2026-05-07 13:26 29.44117 -98.43337 5950 ft 228 kts 222°
2026-05-07 13:26 29.42916 -98.44494 5951 ft 227 kts 222°
2026-05-07 13:26 29.41695 -98.45672 5950 ft 227 kts 222°
2026-05-07 13:27 29.40484 -98.46838 5948 ft 227 kts 222°
2026-05-07 13:27 29.39272 -98.48008 5948 ft 228 kts 222°
2026-05-07 13:27 29.38060 -98.49178 5947 ft 228 kts 222°
2026-05-07 13:27 29.36856 -98.50339 5930 ft 227 kts 221°
2026-05-07 13:28 29.35636 -98.51518 5663 ft 226 kts 222°
2026-05-07 13:28 29.34439 -98.52679 5365 ft 226 kts 224°
2026-05-07 13:28 29.33575 -98.54138 5079 ft 220 kts 261°
2026-05-07 13:28 29.33548 -98.55821 5054 ft 207 kts 279°
2026-05-07 13:29 29.34081 -98.57301 4919 ft 202 kts 320°
2026-05-07 13:29 29.35309 -98.57911 4759 ft 192 kts 359°
2026-05-07 13:29 29.36621 -98.57799 4509 ft 187 kts
2026-05-07 13:29 29.37918 -98.57721 4208 ft 185 kts
2026-05-07 13:30 29.39193 -98.57678 3929 ft 182 kts
2026-05-07 13:30 29.40456 -98.57649 3660 ft 179 kts
2026-05-07 13:30 29.41661 -98.57484 3391 ft 172 kts 26°
2026-05-07 13:30 29.42547 -98.56678 3222 ft 160 kts 44°
2026-05-07 13:31 29.43368 -98.55833 3020 ft 153 kts 43°
2026-05-07 13:31 29.44146 -98.55061 2835 ft 145 kts 41°
2026-05-07 13:31 29.44891 -98.54333 2636 ft 137 kts 41°
2026-05-07 13:31 29.45607 -98.53629 2461 ft 133 kts 41°
2026-05-07 13:32 29.46313 -98.52930 2298 ft 132 kts 41°
2026-05-07 13:32 29.47002 -98.52248 2136 ft 131 kts 40°
2026-05-07 13:32 29.47693 -98.51564 1985 ft 132 kts 40°
2026-05-07 13:32 29.48381 -98.50882 1816 ft 125 kts 39°
2026-05-07 13:33 29.49030 -98.50241 1639 ft 122 kts 40°
2026-05-07 13:33 29.49670 -98.49609 1489 ft 122 kts 40°
2026-05-07 13:33 29.50310 -98.48977 1331 ft 121 kts 39°
2026-05-07 13:33 29.50953 -98.48342 1172 ft 121 kts 40°
2026-05-07 13:34 29.51588 -98.47714 1017 ft 120 kts 39°
2026-05-07 13:34 29.52830 -98.46481 780 ft 112 kts 39°
2026-05-07 13:34 29.53306 -98.46027 775 ft 65 kts 41°
2026-05-07 13:35 29.53529 -98.45803 772 ft 30 kts 40°
2026-05-07 13:35 29.53646 -98.45699 768 ft 16 kts 19°
2026-05-07 13:35 29.53727 -98.45763 768 ft 15 kts 261°
2026-05-07 13:35 29.53658 -98.45853 770 ft 14 kts 222°
2026-05-07 13:36 29.53583 -98.45931 772 ft 14 kts 222°
2026-05-07 13:36 29.53507 -98.46006 773 ft 14 kts 221°
2026-05-07 13:36 29.53428 -98.46085 775 ft 15 kts 221°
2026-05-07 13:36 29.53340 -98.46172 777 ft 17 kts 221°
2026-05-07 13:37 29.53246 -98.46267 777 ft 19 kts 220°
2026-05-07 13:37 29.53139 -98.46371 777 ft 20 kts 221°
2026-05-07 13:37 29.53028 -98.46480 779 ft 20 kts 220°
2026-05-07 13:37 29.52921 -98.46583 781 ft 19 kts 221°
2026-05-07 13:38 29.52818 -98.46686 783 ft 18 kts 221°
2026-05-07 13:38 29.52722 -98.46783 785 ft 18 kts 220°
2026-05-07 13:38 29.52621 -98.46864 787 ft 17 kts 220°
2026-05-07 13:38 29.52563 -98.46945 789 ft 9 kts 263°
2026-05-07 13:39 29.52570 -98.47020 790 ft 9 kts 284°
2026-05-07 13:39 29.52605 -98.47062 791 ft 3 kts 328°
2026-05-07 13:39 29.52622 -98.47074 791 ft 0 kts 328°